Find Starlink 33761

NORAD ID: 63455 Int'l Des: 2025-069 Owner: SPXS Country: US Constellation: starlink operational
LEOCIRCULAR

Live Position

Loading 3D Globe...

About Starlink 33761

Description loading...

Upcoming Passes

Passes for default location (London). Set your location on the main map for personalized predictions.

Altitude History

Loading altitude history...

Two-Line Element Set

1 63455U 25069Y 26104.06837788 .00006922 00000-0 24562-3 0 9996
2 63455 53.1594 337.9692 0000976 80.3881 279.7230 15.30199968 58825
Epoch: Apr 14, 2026 • Age: 11 hours

Current Status

Altitude 479.2 km
Velocity 7.63 km/s
Sub-Earth Point 44.89°N, 12.22°W
Launch Date Apr 4, 2025
Age 1 years
Type internet

Technical Details

Classification Payload
Mass 575.00 kg
Dry Mass 530.00 kg
Total Mass 575.00 kg
Length 0.30 m
Diameter 4.10 m
Span 29.00 m
Shape Box + pan
Manufacturer SPXS
Bus Type Starlink V2MO
Phase Status In Orbit
Owner/State SPXS/US

Most Searched